Regional Weather Roundup
Issued by NWS State College, PA

Home | Current Version | Previous Version | Text Only | Print | Product List | Glossary On
Versions: 1 2 3 4 5 6 7 8 9 10 11 12 13 14 15 16 17 18 19 20 21 22 23 24 25 26 27 28 29 30 31 32 33 34 35 36 37 38 39 40 41 42 43 44 45 46 47 48 49 50
000
ASUS41 KCTP 261303
RWRCTP

REGIONAL WEATHER ROUNDUP
NATIONAL WEATHER SERVICE STATE COLLEGE PA
900 AM EDT FRI AUG 26 2016

Note: "fair" indicates few or no clouds below 12,000 feet with no
significant weather and/or obstructions to visibility.

* = STATION THAT DOES NOT REPORT PRECIPITATION /E.G. RAIN...SNOW...ETC/
    THUNDER OR FOG.

PAZ002>004-007>009-013>016-020>023-029>032-261400-
WESTERN PENNSYLVANIA

CITY           SKY/WX    TMP DP  RH WIND       PRES   REMARKS
ERIE           MOSUNNY   76  69  79 W5        30.10R
MEADVILLE      MOSUNNY   72  68  87 NW6       30.15R
FRANKLIN*        N/A     72  66  83 W7        30.16R
NEW CASTLE     PTSUNNY   73  71  93 CALM      30.15R
BEAVER COUNTY  SUNNY     73  70  88 W6        30.15R
BUTLER*        NOT AVBL
PITTSBURGH INT MOSUNNY   75  69  81 W6        30.14R
PITTSBURGH     SUNNY     76  69  79 W5        30.14R
INDIANA*       CLOUDY    72  72 100 SW3       30.17S FOG
LATROBE        MOSUNNY   73  73 100 SW7       30.15S FOG
WASHINGTON CO* SUNNY     75  70  83 W5        30.16R
$$

PAZ004>006-010>012-017>019-024>028-033>037-041-042-045-046-049>053-261400-
CENTRAL PENNSYLVANIA

CITY           SKY/WX    TMP DP  RH WIND       PRES   REMARKS
BRADFORD       MOSUNNY   72  68  87 N7        30.15R
DUBOIS         CLOUDY    72  67  84 NW6       30.14R
CLEARFIELD     MOSUNNY   75  70  84 W6        30.13R
JOHNSTOWN      PTSUNNY   72  70  93 W9        30.18R
ALTOONA        MOSUNNY   75  70  84 W3        30.15R
STATE COLLEGE  PTSUNNY   75  68  78 NW5       30.12R
WILLIAMSPORT   SUNNY     79  70  74 W5        30.05R
SELINSGROVE    MOSUNNY   80  75  84 VRB3      30.07R
FT INDIANTOWN  SUNNY     78  78 100 W6        30.05S
CAPITAL CITY   SUNNY     83  71  67 NW8       30.06R
HARRISBURG     MOSUNNY   81  76  84 NW5       30.05S
YORK           SUNNY     82  72  71 W9        30.07R
$$

PAZ038>040-043-044-047-048-054-055-060>062-067>071-261400-
EASTERN PENNSYLVANIA

CITY           SKY/WX    TMP DP  RH WIND       PRES   REMARKS
SCRANTON       CLOUDY    77  71  82 SW7       30.06R
MOUNT POCONO   PTSUNNY   73  69  87 NW9       30.08S
ALLENTOWN      SUNNY     80  73  79 SW7       30.03S
QUAKERTOWN*    SUNNY     81  72  74 CALM      30.05R
READING        SUNNY     81  73  76 W8        30.04R
LANCASTER      SUNNY     81  77  88 NW10      30.06R
COATESVILLE    SUNNY     81  73  78 NW10      30.08R
POTTSTOWN      SUNNY     79  74  84 W7        30.05S
BLUE BELL      SUNNY     79  73  83 W5        30.03S
DOYLESTOWN     SUNNY     83  75  77 VRB6      30.02S
WILLOW GROVE   NOT AVBL
NORTH PHILA    MOSUNNY   83  74  74 W9        30.03S
PHILADELPHIA   MOSUNNY   82  73  74 W7        30.02S
$$




USA.gov is the U.S. government's official web portal to all federal, state and local government web resources and services.